Location: Newark
(46.9000°N, 28.3500°E)
Time: 12:28:24
(UTC+00:00)

Vanguard 1 Rocket - Pass Details

Date: 01 September 2019
Orbit: 651 x 4225 km, 34.3° (Epoch: 20 September)

Event Time Altitude Azimuth Distance (km) Brightness Sun altitude
Rises 21:08:26 0° 224° (SW) 4,297 - -33.5°
Reaches altitude 10° 21:13:05 10° 204° (SSW) 2,771 - -33.7°
Maximum altitude 21:16:29 15° 170° (S) 2,086 - -33.8°
Drops below altitude 10° 21:19:20 10° 134° (SE) 2,213 - -34.0°
Sets 21:22:21 0° 109° (ESE) 2,989 - -34.1°
